Other Public Products
Issued by NWS Grand Forks, ND

Home | Current Version | Previous Version | Graphics & Text | Print | Product List | Glossary Off
Versions: 1 2 3 4 5 6 7 8 9 10 11 12 13 14 15 16 17 18 19 20 21 22 23 24 25 26 27 28 29 30 31 32 33 34 35 36 37 38 39 40 41 42 43 44 45 46 47 48 49 50

000
FPUS83 KFGF 010110
OPUFGF
PRAIRIE TO PINES WEATHER ROUNDUP
NATIONAL WEATHER SERVICE EASTERN NORTH DAKOTA/GRAND FORKS ND
800 PM CDT SAT APR 30 2016

 **SATELLITE DATA USED TO AUGMENT SKY COVER AT AUTOMATED STATIONS**
 *****  WEATHER ACROSS EASTERN NORTH DAKOTA  *****

CITY           SKY/WX    TMP DP  RH WIND       PRES   REMARKS
GRAND FORKS    PTCLDY    56  27  32 NE15      30.22S
GRAND FORKS AF CLEAR     56  26  32 E15G21    30.23R
GRAND CITY NWS NOT AVBL
BUXTON         NOT AVBL
DEVILS LAKE    CLEAR     57  29  34 NE15G21   30.24R
FARGO          CLOUDY    58  26  29 NE15G25   30.16R
WAHPETON ARPT  PTCLDY    57  27  30 NE12      30.13R
$$

 *****  WEATHER ACROSS CENTRAL AND WESTERN NORTH DAKOTA  *****

CITY           SKY/WX    TMP DP  RH WIND       PRES   REMARKS
JAMESTOWN      CLOUDY    56  26  31 NE18      30.18S
BISMARCK       CLOUDY    57  28  33 NE12      30.21R
MINOT          CLEAR     63  24  22 NE12      30.24S
MINOT AFB      CLEAR     60  26  27 E10       30.24R
GARRISON         N/A     58  26  29 E15       30.24R
WILLISTON      CLEAR     61  29  29 E10       30.26R
DICKINSON      PTCLDY    53  26  35 NE10      30.22R
HETTINGER      PTCLDY    53  25  33 NE17      30.21R
$$

 *****  OTHER OBSERVATIONS NORTHEAST NORTH DAKOTA  *****

CITY           SKY/WX    TMP DP  RH WIND       PRES   REMARKS
WALHALLA       FAIR      57  28  33 NE10      30.26R
LANGDON        FAIR      57  28  33 E13G23    30.25S
CAVALIER       FAIR      59  27  29 NE12      30.25S
GRAFTON        FAIR      57  30  35 E13G21    30.25R
CANDO          FAIR      57  25  28 NE12G20   30.27R
FORT TOTTEN      N/A     56  29  36 NE7       29.95S
ROLLA          FAIR      55  27  33 NE14      30.28R
RUGBY          FAIR      57  28  33 NE17      30.25R
 ***** THE ABOVE OBSERVATIONS ARE NON NWS ARE NOT QUALITY
        CONTROLLED AND MAY MIS-REPORT RAIN FOR SNOW...
$$

 *****  OTHER OBSERVATIONS SOUTHEAST NORTH DAKOTA *****

CITY           SKY/WX    TMP DP  RH WIND       PRES   REMARKS
COOPERSTOWN    NOT AVBL
VALLEY CITY    FAIR      55  27  33 NE14G20   30.20R
OAKES            N/A    N/A N/A N/A MISG        N/A
GWINNER        FAIR      55  30  38 NE10      30.14R
SHEYENNE NWR     N/A     58  25  28 NE9       29.95S
BUFFALO        NOT AVBL
WYNDMERE         N/A     57  30  35 NE12        N/A
 ***** THE ABOVE OBSERVATIONS ARE NON NWS ARE NOT QUALITY
       CONTROLLED AND MAY MIS-REPORT RAIN FOR SNOW...
$$

  *****  WEATHER ACROSS NORTHERN MINNESOTA  *****

CITY           SKY/WX    TMP DP  RH WIND       PRES   REMARKS
FLAG ISLAND    CLEAR     54  27  35 NE7       30.26R
WARROAD        CLEAR     48  32  53 NE7       30.27S
ROSEAU         CLEAR     54  34  47 E12       30.26R
HALLOCK        CLEAR     59  21  23 E9        30.25R
THF RVR FALLS  CLEAR     55  25  30 NE13      30.23R
HALSTAD        NOT AVBL
FOSSTON        CLOUDY    55  27  33 NE14G22   30.20R
BAUDETTE       CLEAR     53  25  33 E8        30.24R
WASKISH        CLEAR     54  28  37 NE9         N/A
CROOKSTON      CLEAR     57  28  33 NE14      30.22R
$$
  *****  WEATHER ACROSS CENTRAL AND WEST MINNESOTA  *****

CITY           SKY/WX    TMP DP  RH WIND       PRES   REMARKS
BEMIDJI        CLEAR     53  29  39 NE10      30.19R
PARK RAPIDS    CLEAR     55  26  32 NE13      30.15R
WADENA         PTCLDY    54  30  40 E8        30.14R
DETROIT LAKES  CLOUDY    54  30  40 E8        30.17R
MOORHEAD       CLOUDY    57  27  30 NE16      30.16R
FERGUS FALLS   PTCLDY    55  30  38 E7        30.11R
ELBOW LAKE     FAIR      54  32  43 E14G20    30.13R
MORRIS MN      CLOUDY    54  32  43 E17       30.11R
STAPLES        CLOUDY    52  28  40 E10G16    30.16R
WHEATON        PTCLDY    57  36  44 E15       30.13R
$$
  *****  WEATHER ELSEWHERE ACROSS MINNESOTA  *****

CITY           SKY/WX    TMP DP  RH WIND       PRES   REMARKS
DULUTH         CLOUDY    41  26  55 E16       30.23R
INTRNTL FALLS  CLEAR     54  25  32 E7        30.24R
ELY            CLEAR     46  27  46 SE5       30.24R
CLOQUET        CLOUDY    45  25  45 E13G22    30.22R
BRAINERD       CLOUDY    49  27  42 NE13G24   30.18R
HIBBING        CLEAR     44  27  51 SE8       30.22R
ALEXANDRIA     CLOUDY    50  29  44 E14       30.14R
SAINT CLOUD    PTCLDY    51  29  42 NE15G22   30.11R
MINNEAPOLIS    CLOUDY    54  33  45 NE13      30.06R
$$

  *****  WEATHER ACROSS SOUTH DAKOTA  *****

CITY           SKY/WX    TMP DP  RH WIND       PRES   REMARKS
SIOUX FALLS    CLOUDY    44  40  85 E17       30.01R
BROOKINGS      LGT RAIN  46  39  76 E10       30.04R
WATERTOWN      CLOUDY    52  36  54 NE15      30.07R
HURON          CLOUDY    51  38  60 NE9       30.07R
SISSETON         N/A     56  31  38 E15       30.10R
ABERDEEN       CLOUDY    56  32  40 NE12      30.11R
MITCHELL       LGT RAIN  45  42  89 NE12      30.06R FOG
PIERRE         CLOUDY    52  37  56 NE12      30.08R
MOBRIDGE       CLOUDY    56  31  38 NE17G24   30.13R
RAPID CITY     CLOUDY    49  32  52 NE16      30.14R
$$

  *****  SOME WEATHER IN NEARBY STATES *****

CITY           SKY/WX    TMP DP  RH WIND       PRES   REMARKS
GLASGOW MT     SUNNY     61  27  27 E13       30.26S
GREAT FALLS MT CLOUDY    52  35  52 E13       30.27R
CHEYENNE WY    LGT SNOW  32  29  88 N17G25    30.10R FOG     WCI  21
SCOTTSBLUFF NE LGT RAIN  38  32  79 NW9       30.10R
OMAHA NE       CLOUDY    50  48  93 E14       29.81S
DES MOINES IA  DRIZZLE   49  45  86 E15       29.85R FOG
DAVENPORT IA   CLOUDY    46  43  89 E18G28    29.89R FOG
CHICAGO IL     LGT RAIN  45  43  93 NE15      29.92S FOG
EAU CLAIRE WI  CLOUDY    54  34  46 E6        30.05R
LA CROSSE WI   LGT RAIN  46  38  73 E10G21    30.03F
$$

  *****  SOME NATIONAL WEATHER *****

CITY           SKY/WX    TMP DP  RH WIND       PRES   REMARKS
LA GUARDIA NY  PTCLDY    52  38  58 S9        30.24S
RALEIGH NC     CLOUDY    60  56  86 E9        30.15R
ATLANTA GA     CLOUDY    70  63  78 S7        29.98R THUNDER
NEW ORLEANS LA CLOUDY    71  65  81 SE12      29.84S
OKLAHOMA CITY  CLEAR     65  45  48 N14       29.84R
ALBUQUERQUE NM LGT RAIN  51  44  77 S22G36    29.87R
SALT LAKE CITY CLOUDY    59  27  29 VRB6      29.93R
LOS ANGELES CA MOSUNNY   61  51  70 W12       29.80S
BOISE ID       SUNNY     65  30  27 NW24G33   30.00R
SEATTLE WA     MOSUNNY   67  42  40 N12       30.31F
$$

*** WEATHER ACROSS MANITOBA...SASKATCHEWAN AND ONTARIO ***
                ***ONTARIO***

CITY           SKY/WX    TMP DP  RH WIND       PRES   REMARKS
GERALDTON      MOCLDY    43  28  56 N7        30.31R
THUNDER BAY    PTCLDY    46  28  49 E3        30.26S
SIOUX LOOKOUT  CLEAR     50  27  40 E6        30.28R
TORONTO        CLOUDY    52  25  35 E5        30.11F
BIG TROUT LK   CLEAR     43  28  56 CALM      30.33F
PICKLE LAKE    PTCLDY    45  27  49 E5        30.31F
DRYDEN         CLEAR     52  27  37 NE9       30.26S
KENORA         CLEAR     54  23  30 NE12      30.27R
$$
                *** MANITOBA***

CITY           SKY/WX    TMP DP  RH WIND       PRES   REMARKS
BRANDON        PTCLDY    57  28  33 E13G18    30.31R
DAUPHIN        CLEAR     59  27  29 E9        30.32S
ISLAND LAKE    PTCLDY    55  27  33 SE6       30.29S
PILOT MOUND      N/A     55  25  30 NE13G18     N/A
THE PAS        CLOUDY    63  32  31 SE10      30.29S
THOMPSON       PTCLDY    68  23  18 W7        30.23S
WINNIPEG       CLEAR     57  28  33 NE10G17   30.28S
LYNN LAKE      SUNNY     66  23  19 SW7       30.20F
CHURCHILL      MOCLDY    30  27  86 SE18      30.34F WCI  18
$$
                ***SASKATCHEWAN***

CITY           SKY/WX    TMP DP  RH WIND       PRES   REMARKS
ESTEVAN        PTCLDY    59  25  27 E10       30.29R
KINDERSLEY     PTSUNNY   61  32  33 W9        30.27S
LLOYDMINSTER   PTSUNNY   59  36  41 SW10      30.24F
PRINCE ALBERT  MOSUNNY   64  25  22 S8        30.26F
REGINA         MOSUNNY   61  25  25 SE8       30.30R
YORKTON        CLEAR     61  27  27 SE12      30.31S
N. BATTLEFORD  SUNNY     63  32  31 W8        30.27S   C1F1C2F2C3F3C4F4C5F5C6F6C7F7C8F8C9F9CaFaCbFbCcFcCdFdCe!



USA.gov is the U.S. government's official web portal to all federal, state and local government web resources and services.